Regional Weather Roundup
Issued by NWS

Home | Current Version | Previous Version | Graphics & Text | Print | Product List | Glossary On
Versions: 1 2 3 4 5 6 7 8 9 10 11 12 13 14 15 16 17 18 19 20 21 22 23 24 25 26 27 28 29 30 31 32 33 34 35 36 37 38 39 40 41 42 43 44 45 46 47 48 49 50
000
ASUS45 KBOI 201410
RWRID
WEATHER ROUNDUP FOR IDAHO
NATIONAL WEATHER SERVICE BOISE ID
800 AM MDT MON OCT 20 2014

NOTE: "FAIR" INDICATES FEW OR NO CLOUDS BELOW 12000 FEET
WITH NO SIGNIFICANT WEATHER AND/OR OBSTRUCTIONS TO VISIBILITY

IDZ012-014-201500-
SOUTHWEST IDAHO


CITY           SKY/WX    TMP DP  RH WIND       PRES   REMARKS
BOISE          CLEAR     48  33  56 CALM      29.87R
CALDWELL       CLEAR     41  30  65 CALM      29.89S
MOUNTAIN HOME  CLEAR     53  32  45 SE14      29.87S
$$

IDZ016-017-201500-
SOUTHCENTRAL IDAHO


CITY           SKY/WX    TMP DP  RH WIND       PRES   REMARKS
BURLEY         PTCLDY    45  32  60 E7        29.96F
JEROME         LGT RAIN  49  29  46 NE17      29.95S
TWIN FALLS     PTCLDY    43  31  62 NW5       29.95R
$$

IDZ019>023-201500-
SOUTHEAST IDAHO


CITY           SKY/WX    TMP DP  RH WIND       PRES   REMARKS
IDAHO FALLS    CLEAR     33  29  85 N5        30.06S WCI  29
POCATELLO      PTCLDY    33  30  88 N3        30.03F
REXBURG        PTCLDY    34  27  75 NE5       30.07S WCI  30
$$

IDZ006-010-011-018-031-032-201500-
CENTRAL IDAHO MOUNTAINS


CITY           SKY/WX    TMP DP  RH WIND       PRES   REMARKS
MCCALL         CLEAR     31  27  85 E3        29.93S
HAILEY         MOCLDY    43  30  61 W12       30.06F
STANLEY          N/A     25  21  85 CALM      30.07F
SALMON         NOT AVBL
CHALLIS        CLEAR     35  26  69 CALM      30.04S
$$

IDZ002-004-006-007-026-201500-
NORTHERN IDAHO


CITY           SKY/WX    TMP DP  RH WIND       PRES   REMARKS
LEWISTON       CLEAR     46  40  79 CALM      29.77R
LOWELL           N/A     42  41  96 NW6       29.90S
COEUR D`ALENE  CLEAR     43  41  93 E9        29.77S
MULLAN PASS    CLEAR     49  28  44 VRB3      29.91S
$$


USA.gov is the U.S. government's official web portal to all federal, state and local government web resources and services.